| time (UTC) | temp C | wind direction | speed KPH | gust KPH | rain 1hr cm | rain 24hr cm | rain mn cm | humidity % | barometer mb |
| 20260507193535 | 17 | 115 | 1.6 | 9.7 | 0.00 | 0.00 | 0.00 | 40 | 1015.6 |
| 20260507193049 | 17 | 65 | 1.6 | 4.8 | 0.00 | 0.00 | 0.00 | 45 | 1015.6 |
| 20260507192534 | 17 | 302 | 1.6 | 4.8 | 0.00 | 0.00 | 0.00 | 42 | 1015.6 |
| 20260507192036 | 18 | 284 | 0.0 | 4.8 | 0.00 | 0.00 | 0.00 | 45 | 1015.6 |
| 20260507191546 | 17 | 176 | 1.6 | 11.3 | 0.00 | 0.00 | 0.00 | 45 | 1015.6 |
| 20260507191039 | 17 | 252 | 1.6 | 11.3 | 0.00 | 0.00 | 0.00 | 45 | 1015.6 |
| 20260507190540 | 17 | 0 | 1.6 | 6.4 | 0.00 | 0.00 | 0.00 | 43 | 1015.4 |
| 20260507190044 | 17 | 0 | 0.0 | 6.4 | 0.00 | 0.00 | 0.00 | 47 | 1015.5 |
| 20260507185540 | 17 | 105 | 1.6 | 12.9 | 0.00 | 0.00 | 0.00 | 47 | 1015.5 |
| 20260507185037 | 17 | 242 | 1.6 | 12.9 | 0.00 | 0.00 | 0.00 | 46 | 1015.7 |
| 20260507184543 | 17 | 32 | 1.6 | 11.3 | 0.00 | 0.00 | 0.00 | 47 | 1015.6 |
| 20260507184041 | 17 | 103 | 1.6 | 9.7 | 0.00 | 0.00 | 0.00 | 47 | 1015.6 |
| 20260507183540 | 17 | 0 | 3.2 | 9.7 | 0.00 | 0.00 | 0.00 | 46 | 1015.6 |
| 20260507183055 | 17 | 0 | 1.6 | 6.4 | 0.00 | 0.00 | 0.00 | 48 | 1015.6 |
| 20260507182539 | 17 | 271 | 1.6 | 8.0 | 0.00 | 0.00 | 0.00 | 43 | 1015.7 |
| 20260507182040 | 17 | 0 | 0.0 | 8.0 | 0.00 | 0.00 | 0.00 | 49 | 1015.9 |
| 20260507181551 | 17 | 271 | 0.0 | 6.4 | 0.00 | 0.00 | 0.00 | 49 | 1015.8 |
| 20260507181039 | 17 | 168 | 0.0 | 6.4 | 0.00 | 0.00 | 0.00 | 51 | 1015.9 |
| 20260507180542 | 17 | 284 | 0.0 | 6.4 | 0.00 | 0.00 | 0.00 | 44 | 1015.8 |
| 20260507180055 | 17 | 266 | 0.0 | 4.8 | 0.00 | 0.00 | 0.00 | 51 | 1015.9 |
| 20260507175539 | 16 | 279 | 1.6 | 8.0 | 0.00 | 0.00 | 0.00 | 50 | 1016.1 |
| 20260507175039 | 16 | 171 | 1.6 | 8.0 | 0.00 | 0.00 | 0.00 | 48 | 1016.0 |
| 20260507174546 | 17 | 287 | 0.0 | 6.4 | 0.00 | 0.00 | 0.00 | 51 | 1016.2 |
| 20260507174040 | 17 | 262 | 1.6 | 6.4 | 0.00 | 0.00 | 0.00 | 50 | 1016.2 |
| 20260507173543 | 17 | 255 | 0.0 | 6.4 | 0.00 | 0.00 | 0.00 | 48 | 1016.3 |
| 20260507173101 | 17 | 265 | 0.0 | 6.4 | 0.00 | 0.00 | 0.00 | 45 | 1016.2 |
| 20260507172539 | 16 | 291 | 0.0 | 4.8 | 0.00 | 0.00 | 0.00 | 53 | 1016.3 |
| 20260507172040 | 16 | 100 | 0.0 | 12.9 | 0.00 | 0.00 | 0.00 | 51 | 1016.4 |
| 20260507171555 | 16 | 303 | 0.0 | 12.9 | 0.00 | 0.00 | 0.00 | 50 | 1016.5 |
| 20260507171040 | 16 | 27 | 1.6 | 8.0 | 0.00 | 0.00 | 0.00 | 49 | 1016.6 |
| 20260507170540 | 16 | 233 | 1.6 | 8.0 | 0.00 | 0.00 | 0.00 | 51 | 1016.6 |
| 20260507170055 | 16 | 0 | 0.0 | 4.8 | 0.00 | 0.00 | 0.00 | 58 | 1016.7 |
| 20260507165539 | 16 | 0 | 1.6 | 6.4 | 0.00 | 0.00 | 0.00 | 51 | 1016.7 |
| 20260507165039 | 15 | 0 | 1.6 | 8.0 | 0.00 | 0.00 | 0.00 | 54 | 1016.7 |
| 20260507164551 | 15 | 288 | 1.6 | 8.0 | 0.00 | 0.00 | 0.00 | 49 | 1016.7 |
| 20260507164039 | 16 | 299 | 1.6 | 8.0 | 0.00 | 0.00 | 0.00 | 55 | 1016.7 |
| 20260507163538 | 15 | 231 | 0.0 | 4.8 | 0.00 | 0.00 | 0.00 | 53 | 1016.8 |
| 20260507163048 | 15 | 0 | 0.0 | 4.8 | 0.00 | 0.00 | 0.00 | 54 | 1017.0 |
| 20260507162540 | 15 | 283 | 0.0 | 8.0 | 0.00 | 0.00 | 0.00 | 54 | 1017.0 |
| 20260507162038 | 15 | 117 | 1.6 | 9.7 | 0.00 | 0.00 | 0.00 | 55 | 1017.1 |
| 20260507161551 | 15 | 53 | 0.0 | 9.7 | 0.00 | 0.00 | 0.00 | 54 | 1017.1 |
| 20260507161040 | 14 | 283 | 1.6 | 8.0 | 0.00 | 0.00 | 0.00 | 54 | 1017.1 |
| 20260507160539 | 14 | 272 | 1.6 | 8.0 | 0.00 | 0.00 | 0.00 | 56 | 1017.1 |
| 20260507160053 | 14 | 54 | 1.6 | 8.0 | 0.00 | 0.00 | 0.00 | 53 | 1017.1 |
| 20260507155538 | 14 | 286 | 3.2 | 8.0 | 0.00 | 0.00 | 0.00 | 54 | 1017.1 |
| 20260507155040 | 14 | 259 | 1.6 | 8.0 | 0.00 | 0.00 | 0.00 | 53 | 1017.0 |
| 20260507154546 | 14 | 120 | 1.6 | 8.0 | 0.00 | 0.00 | 0.00 | 55 | 1017.0 |
| 20260507154036 | 14 | 269 | 1.6 | 17.7 | 0.00 | 0.00 | 0.00 | 53 | 1016.9 |
| 20260507153535 | 13 | 248 | 1.6 | 17.7 | 0.00 | 0.00 | 0.00 | 52 | 1017.0 |
| 20260507153102 | 13 | 27 | 4.8 | 17.7 | 0.00 | 0.00 | 0.00 | 52 | 1017.0 |
| 20260507152539 | 14 | 259 | 0.0 | 6.4 | 0.00 | 0.00 | 0.00 | 56 | 1016.9 |
| 20260507152034 | 13 | 274 | 1.6 | 6.4 | 0.00 | 0.00 | 0.00 | 53 | 1016.9 |
| 20260507151548 | 13 | 206 | 0.0 | 6.4 | 0.00 | 0.00 | 0.00 | 51 | 1016.7 |
| 20260507151035 | 13 | 302 | 1.6 | 6.4 | 0.00 | 0.00 | 0.00 | 53 | 1016.9 |
| 20260507150536 | 13 | 0 | 1.6 | 6.4 | 0.00 | 0.00 | 0.00 | 52 | 1017.0 |
| 20260507150053 | 13 | 75 | 0.0 | 8.0 | 0.00 | 0.00 | 0.00 | 55 | 1016.9 |
| 20260507145536 | 13 | 72 | 0.0 | 8.0 | 0.00 | 0.00 | 0.00 | 53 | 1017.0 |
| 20260507145034 | 13 | 323 | 0.0 | 6.4 | 0.00 | 0.00 | 0.00 | 56 | 1017.0 |
| 20260507144545 | 13 | 0 | 0.0 | 6.4 | 0.00 | 0.00 | 0.00 | 59 | 1017.0 |
| 20260507144039 | 12 | 0 | 1.6 | 6.4 | 0.00 | 0.00 | 0.00 | 57 | 1016.9 |
| 20260507143534 | 12 | 51 | 0.0 | 6.4 | 0.00 | 0.00 | 0.00 | 59 | 1017.0 |
| 20260507143057 | 12 | 0 | 0.0 | 6.4 | 0.00 | 0.00 | 0.00 | 58 | 1017.0 |
| 20260507142536 | 12 | 280 | 0.0 | 11.3 | 0.00 | 0.00 | 0.00 | 58 | 1016.9 |
| 20260507142038 | 12 | 283 | 0.0 | 11.3 | 0.00 | 0.00 | 0.00 | 61 | 1017.0 |
| 20260507141551 | 12 | 225 | 1.6 | 11.3 | 0.00 | 0.00 | 0.00 | 59 | 1017.1 |
| 20260507141035 | 12 | 0 | 0.0 | 6.4 | 0.00 | 0.00 | 0.00 | 60 | 1016.9 |
| 20260507140539 | 12 | 300 | 1.6 | 4.8 | 0.00 | 0.00 | 0.00 | 61 | 1017.0 |
| 20260507140042 | 11 | 257 | 0.0 | 4.8 | 0.00 | 0.00 | 0.00 | 63 | 1017.0 |
| 20260507135544 | 11 | 0 | 0.0 | 4.8 | 0.00 | 0.00 | 0.00 | 69 | 1017.0 |
| 20260507135035 | 11 | 0 | 1.6 | 6.4 | 0.00 | 0.00 | 0.00 | 68 | 1017.1 |
| 20260507134550 | 11 | 287 | 0.0 | 6.4 | 0.00 | 0.00 | 0.00 | 68 | 1017.0 |
| 20260507134035 | 11 | 0 | 1.6 | 6.4 | 0.00 | 0.00 | 0.00 | 66 | 1017.0 |
| 20260507133535 | 10 | 0 | 0.0 | 6.4 | 0.00 | 0.00 | 0.00 | 69 | 1017.0 |
| 20260507133049 | 10 | 300 | 0.0 | 4.8 | 0.00 | 0.00 | 0.00 | 73 | 1017.0 |
| 20260507132535 | 10 | 0 | 0.0 | 4.8 | 0.00 | 0.00 | 0.00 | 70 | 1017.0 |
| 20260507132035 | 10 | 0 | 0.0 | 4.8 | 0.00 | 0.00 | 0.00 | 73 | 1017.1 |
| 20260507131549 | 10 | 280 | 0.0 | 4.8 | 0.00 | 0.00 | 0.00 | 74 | 1016.9 |
| 20260507131037 | 9 | 0 | 0.0 | 4.8 | 0.00 | 0.00 | 0.00 | 76 | 1017.0 |
| 20260507130535 | 9 | 0 | 0.0 | 4.8 | 0.00 | 0.00 | 0.00 | 78 | 1016.9 |
| 20260507130058 | 8 | 264 | 0.0 | 4.8 | 0.00 | 0.00 | 0.00 | 77 | 1016.9 |
| 20260507125539 | 8 | 319 | 0.0 | 4.8 | 0.00 | 0.00 | 0.00 | 77 | 1016.8 |
| 20260507125035 | 8 | 0 | 0.0 | 1.6 | 0.00 | 0.00 | 0.00 | 81 | 1016.8 |
| 20260507124557 | 8 | 260 | 0.0 | 1.6 | 0.00 | 0.00 | 0.00 | 85 | 1016.9 |
| 20260507124035 | 7 | 0 | 0.0 | 1.6 | 0.00 | 0.00 | 0.00 | 84 | 1017.0 |
| 20260507123535 | 7 | 0 | 0.0 | 1.6 | 0.00 | 0.00 | 0.00 | 84 | 1017.0 |
| 20260507123053 | 7 | 0 | 0.0 | 1.6 | 0.00 | 0.00 | 0.00 | 87 | 1017.0 |
| 20260507122536 | 7 | 0 | 0.0 | 3.2 | 0.00 | 0.00 | 0.00 | 88 | 1017.0 |
| 20260507122036 | 6 | 0 | 0.0 | 3.2 | 0.00 | 0.00 | 0.00 | 88 | 1017.1 |
| 20260507121554 | 6 | 0 | 0.0 | 3.2 | 0.00 | 0.00 | 0.00 | 89 | 1017.1 |
| 20260507121036 | 6 | 0 | 0.0 | 1.6 | 0.00 | 0.00 | 0.00 | 92 | 1017.1 |
| 20260507120536 | 6 | 0 | 0.0 | 1.6 | 0.00 | 0.00 | 0.00 | 94 | 1017.0 |
| 20260507120047 | 5 | 0 | 0.0 | 1.6 | 0.00 | 0.00 | 0.00 | 95 | 1016.9 |
| 20260507115536 | 5 | 0 | 0.0 | 1.6 | 0.00 | 0.00 | 0.00 | 97 | 1017.0 |
| 20260507115036 | 5 | 0 | 0.0 | 1.6 | 0.00 | 0.00 | 0.00 | 98 | 1017.0 |
| 20260507114545 | 4 | 0 | 0.0 | 1.6 | 0.00 | 0.00 | 0.00 | 98 | 1017.0 |
| 20260507114039 | 3 | 0 | 0.0 | 0.0 | 0.00 | 0.00 | 0.00 | 98 | 1016.9 |
| 20260507113539 | 3 | 0 | 0.0 | 0.0 | 0.00 | 0.00 | 0.00 | 98 | 1016.9 |
| 20260507113052 | 3 | 0 | 0.0 | 0.0 | 0.00 | 0.00 | 0.00 | 97 | 1016.9 |
| 20260507112540 | 3 | 0 | 0.0 | 0.0 | 0.00 | 0.00 | 0.00 | 97 | 1017.0 |
| 20260507112040 | 3 | 0 | 0.0 | 0.0 | 0.00 | 0.00 | 0.00 | 97 | 1017.0 |
| 20260507111544 | 3 | 0 | 0.0 | 0.0 | 0.00 | 0.00 | 0.00 | 97 | 1017.0 |
| 20260507111035 | 3 | 0 | 0.0 | 0.0 | 0.00 | 0.00 | 0.00 | 97 | 1017.0 |
| 20260507110535 | 3 | 0 | 0.0 | 0.0 | 0.00 | 0.00 | 0.00 | 97 | 1016.9 |
| 20260507110054 | 3 | 0 | 0.0 | 0.0 | 0.00 | 0.00 | 0.00 | 97 | 1016.7 |
| 20260507105539 | 3 | 0 | 0.0 | 0.0 | 0.00 | 0.00 | 0.00 | 96 | 1016.6 |
| 20260507105036 | 3 | 0 | 0.0 | 0.0 | 0.00 | 0.00 | 0.00 | 96 | 1016.5 |
| 20260507104555 | 3 | 0 | 0.0 | 0.0 | 0.00 | 0.00 | 0.00 | 96 | 1016.4 |
| 20260507104035 | 3 | 0 | 0.0 | 0.0 | 0.00 | 0.00 | 0.00 | 96 | 1016.4 |
| 20260507103536 | 3 | 0 | 0.0 | 0.0 | 0.00 | 0.00 | 0.00 | 96 | 1016.4 |
| 20260507103112 | 3 | 0 | 0.0 | 0.0 | 0.00 | 0.00 | 0.00 | 96 | 1016.4 |
| 20260507102536 | 3 | 0 | 0.0 | 0.0 | 0.00 | 0.00 | 0.00 | 97 | 1016.2 |
| 20260507102036 | 3 | 0 | 0.0 | 0.0 | 0.00 | 0.00 | 0.00 | 97 | 1016.3 |
| 20260507101545 | 3 | 0 | 0.0 | 1.6 | 0.00 | 0.00 | 0.00 | 97 | 1016.3 |
| 20260507101036 | 4 | 0 | 0.0 | 1.6 | 0.00 | 0.00 | 0.00 | 97 | 1016.4 |
| 20260507100535 | 4 | 0 | 0.0 | 0.0 | 0.00 | 0.00 | 0.00 | 97 | 1016.3 |
| 20260507100058 | 4 | 0 | 0.0 | 0.0 | 0.00 | 0.00 | 0.00 | 97 | 1016.3 |
| 20260507095536 | 4 | 0 | 0.0 | 0.0 | 0.00 | 0.00 | 0.00 | 97 | 1016.3 |
| 20260507095035 | 4 | 0 | 0.0 | 0.0 | 0.00 | 0.00 | 0.00 | 97 | 1016.3 |
| 20260507094547 | 4 | 0 | 0.0 | 0.0 | 0.00 | 0.00 | 0.00 | 97 | 1016.3 |
| 20260507094035 | 4 | 0 | 0.0 | 0.0 | 0.00 | 0.00 | 0.00 | 97 | 1016.3 |
| 20260507093538 | 4 | 0 | 0.0 | 0.0 | 0.00 | 0.00 | 0.00 | 97 | 1016.3 |
| 20260507093042 | 5 | 0 | 0.0 | 0.0 | 0.00 | 0.00 | 0.00 | 97 | 1016.4 |
| 20260507092538 | 5 | 0 | 0.0 | 0.0 | 0.00 | 0.00 | 0.00 | 97 | 1016.3 |
| 20260507092035 | 5 | 0 | 0.0 | 0.0 | 0.00 | 0.00 | 0.00 | 97 | 1016.2 |
| 20260507091550 | 5 | 0 | 0.0 | 0.0 | 0.00 | 0.00 | 0.00 | 97 | 1016.2 |
| 20260507091035 | 5 | 0 | 0.0 | 0.0 | 0.00 | 0.00 | 0.00 | 97 | 1016.1 |
| 20260507090537 | 5 | 0 | 0.0 | 0.0 | 0.00 | 0.00 | 0.00 | 97 | 1016.1 |
| 20260507090054 | 5 | 0 | 0.0 | 0.0 | 0.00 | 0.00 | 0.00 | 97 | 1016.1 |
| 20260507085535 | 5 | 0 | 0.0 | 0.0 | 0.00 | 0.00 | 0.00 | 97 | 1016.2 |
| 20260507085036 | 5 | 0 | 0.0 | 0.0 | 0.00 | 0.00 | 0.00 | 96 | 1016.1 |
| 20260507084548 | 5 | 0 | 0.0 | 0.0 | 0.00 | 0.00 | 0.00 | 96 | 1015.9 |
| 20260507084034 | 5 | 0 | 0.0 | 0.0 | 0.00 | 0.00 | 0.00 | 96 | 1016.0 |
| 20260507083536 | 5 | 0 | 0.0 | 0.0 | 0.00 | 0.00 | 0.00 | 96 | 1015.9 |
| 20260507083045 | 5 | 0 | 0.0 | 0.0 | 0.00 | 0.00 | 0.00 | 96 | 1016.0 |
| 20260507082535 | 5 | 0 | 0.0 | 0.0 | 0.00 | 0.00 | 0.00 | 96 | 1016.0 |
| 20260507082035 | 5 | 0 | 0.0 | 0.0 | 0.00 | 0.00 | 0.00 | 96 | 1015.9 |
| 20260507081544 | 5 | 0 | 0.0 | 0.0 | 0.00 | 0.00 | 0.00 | 96 | 1015.9 |
| 20260507081035 | 5 | 0 | 0.0 | 0.0 | 0.00 | 0.00 | 0.00 | 96 | 1015.9 |
| 20260507080539 | 5 | 0 | 0.0 | 0.0 | 0.00 | 0.00 | 0.00 | 96 | 1015.9 |
| 20260507080046 | 5 | 0 | 0.0 | 0.0 | 0.00 | 0.00 | 0.00 | 96 | 1015.8 |
| 20260507075535 | 6 | 0 | 0.0 | 0.0 | 0.00 | 0.13 | 0.00 | 96 | 1015.8 |
| 20260507075035 | 6 | 0 | 0.0 | 0.0 | 0.00 | 0.13 | 0.00 | 96 | 1015.9 |
| 20260507074548 | 6 | 0 | 0.0 | 0.0 | 0.00 | 0.13 | 0.00 | 96 | 1015.9 |
| 20260507074035 | 6 | 0 | 0.0 | 0.0 | 0.00 | 0.13 | 0.00 | 96 | 1015.8 |
| 20260507073536 | 6 | 0 | 0.0 | 0.0 | 0.00 | 0.13 | 0.00 | 96 | 1015.9 |
| 20260507073049 | 6 | 0 | 0.0 | 0.0 | 0.00 | 0.13 | 0.00 | 95 | 1016.0 |
| 20260507072536 | 6 | 0 | 0.0 | 0.0 | 0.00 | 0.13 | 0.00 | 95 | 1016.0 |
| 20260507072036 | 6 | 0 | 0.0 | 0.0 | 0.00 | 0.13 | 0.00 | 95 | 1015.9 |
| 20260507071549 | 6 | 0 | 0.0 | 0.0 | 0.00 | 0.13 | 0.00 | 95 | 1015.8 |
| 20260507071036 | 6 | 0 | 0.0 | 0.0 | 0.00 | 0.13 | 0.00 | 95 | 1015.8 |
| 20260507070537 | 6 | 0 | 0.0 | 0.0 | 0.00 | 0.13 | 0.00 | 95 | 1015.7 |
| 20260507065535 | 6 | 0 | 0.0 | 0.0 | 0.00 | 0.46 | 0.00 | 95 | 1015.8 |
| 20260507065038 | 6 | 0 | 0.0 | 0.0 | 0.00 | 0.46 | 0.00 | 95 | 1015.8 |
| 20260507064552 | 6 | 0 | 0.0 | 0.0 | 0.00 | 0.46 | 0.00 | 95 | 1015.8 |
| 20260507064120 | 6 | 0 | 0.0 | 0.0 | 0.00 | 0.46 | 0.00 | 95 | 1015.8 |
| 20260507063539 | 6 | 0 | 0.0 | 0.0 | 0.00 | 0.46 | 0.00 | 95 | 1015.8 |
| 20260507063052 | 6 | 0 | 0.0 | 0.0 | 0.00 | 0.46 | 0.00 | 95 | 1015.9 |
| 20260507062543 | 6 | 0 | 0.0 | 0.0 | 0.00 | 0.46 | 0.00 | 95 | 1016.0 |
| 20260507062039 | 6 | 0 | 0.0 | 0.0 | 0.00 | 0.46 | 0.00 | 94 | 1016.0 |
| 20260507061544 | 7 | 0 | 0.0 | 0.0 | 0.00 | 0.46 | 0.00 | 94 | 1016.1 |
| 20260507061040 | 7 | 0 | 0.0 | 0.0 | 0.00 | 0.46 | 0.00 | 94 | 1016.0 |
| 20260507060541 | 7 | 0 | 0.0 | 0.0 | 0.00 | 0.46 | 0.00 | 94 | 1016.0 |
| 20260507060044 | 7 | 0 | 0.0 | 0.0 | 0.00 | 0.46 | 0.00 | 94 | 1015.9 |
| 20260507055539 | 7 | 0 | 0.0 | 0.0 | 0.00 | 0.79 | 0.00 | 94 | 1015.8 |
| 20260507055039 | 7 | 0 | 0.0 | 0.0 | 0.00 | 0.79 | 0.00 | 94 | 1016.0 |
| 20260507054607 | 7 | 0 | 0.0 | 0.0 | 0.00 | 0.79 | 0.00 | 93 | 1016.0 |
| 20260507054039 | 7 | 0 | 0.0 | 0.0 | 0.00 | 0.79 | 0.00 | 93 | 1016.0 |
| 20260507053543 | 7 | 0 | 0.0 | 0.0 | 0.00 | 0.79 | 0.00 | 92 | 1016.0 |
| 20260507053105 | 7 | 0 | 0.0 | 0.0 | 0.00 | 0.79 | 0.00 | 92 | 1016.0 |
| 20260507052539 | 7 | 0 | 0.0 | 0.0 | 0.00 | 0.79 | 0.00 | 92 | 1016.1 |
| 20260507052039 | 7 | 0 | 0.0 | 0.0 | 0.00 | 0.79 | 0.00 | 92 | 1016.1 |
| 20260507051551 | 7 | 0 | 0.0 | 0.0 | 0.00 | 0.79 | 0.00 | 92 | 1016.0 |
| 20260507051040 | 7 | 0 | 0.0 | 0.0 | 0.00 | 0.79 | 0.00 | 92 | 1015.9 |
| 20260507050541 | 7 | 0 | 0.0 | 0.0 | 0.00 | 0.79 | 0.00 | 92 | 1015.9 |
| 20260507050050 | 7 | 0 | 0.0 | 0.0 | 0.00 | 0.79 | 0.00 | 92 | 1016.0 |
| 20260507045540 | 7 | 0 | 0.0 | 0.0 | 0.00 | 1.12 | 0.00 | 92 | 1016.1 |
| 20260507045040 | 7 | 0 | 0.0 | 0.0 | 0.00 | 1.12 | 0.00 | 91 | 1016.0 |
| 20260507044556 | 7 | 0 | 0.0 | 0.0 | 0.00 | 1.12 | 0.00 | 90 | 1016.0 |
| 20260507044039 | 7 | 0 | 0.0 | 0.0 | 0.00 | 1.12 | 0.00 | 90 | 1016.1 |
| 20260507043540 | 8 | 0 | 0.0 | 0.0 | 0.00 | 1.12 | 0.00 | 89 | 1016.1 |
| 20260507043047 | 8 | 0 | 0.0 | 0.0 | 0.00 | 1.12 | 0.00 | 88 | 1016.1 |
| 20260507042540 | 8 | 0 | 0.0 | 0.0 | 0.00 | 1.12 | 0.00 | 88 | 1016.1 |
| 20260507042039 | 8 | 0 | 0.0 | 0.0 | 0.00 | 1.12 | 0.00 | 87 | 1016.0 |
| 20260507041558 | 8 | 0 | 0.0 | 0.0 | 0.00 | 1.12 | 0.00 | 87 | 1016.0 |
| 20260507041039 | 8 | 0 | 0.0 | 0.0 | 0.00 | 1.12 | 0.00 | 86 | 1016.0 |
| 20260507040539 | 8 | 0 | 0.0 | 0.0 | 0.00 | 1.12 | 0.00 | 86 | 1016.0 |
| 20260507040055 | 8 | 0 | 0.0 | 0.0 | 0.00 | 1.12 | 0.00 | 86 | 1016.0 |
| 20260507035538 | 8 | 0 | 0.0 | 0.0 | 0.00 | 1.19 | 1.12 | 86 | 1016.0 |
| 20260507035039 | 8 | 0 | 0.0 | 0.0 | 0.00 | 1.19 | 1.12 | 86 | 1015.9 |
| 20260507034551 | 9 | 0 | 0.0 | 0.0 | 0.00 | 1.19 | 1.12 | 85 | 1015.9 |
| 20260507034041 | 9 | 0 | 0.0 | 0.0 | 0.00 | 1.19 | 1.12 | 85 | 1015.9 |
| 20260507033535 | 9 | 0 | 0.0 | 0.0 | 0.00 | 1.19 | 1.12 | 85 | 1016.0 |
| 20260507033045 | 9 | 0 | 0.0 | 0.0 | 0.00 | 1.19 | 1.12 | 85 | 1016.0 |
| 20260507032539 | 9 | 0 | 0.0 | 0.0 | 0.00 | 1.19 | 1.12 | 85 | 1016.0 |
| 20260507032036 | 9 | 0 | 0.0 | 0.0 | 0.00 | 1.19 | 1.12 | 85 | 1016.0 |
| 20260507031548 | 9 | 0 | 0.0 | 0.0 | 0.00 | 1.19 | 1.12 | 85 | 1015.9 |
| 20260507031037 | 9 | 0 | 0.0 | 0.0 | 0.00 | 1.19 | 1.12 | 85 | 1016.1 |
| 20260507030536 | 8 | 0 | 0.0 | 0.0 | 0.00 | 1.19 | 1.12 | 85 | 1016.0 |
| 20260507030046 | 8 | 0 | 0.0 | 0.0 | 0.00 | 1.19 | 1.12 | 85 | 1016.0 |
| 20260507025535 | 8 | 0 | 0.0 | 0.0 | 0.00 | 1.22 | 1.12 | 84 | 1016.1 |
| 20260507025036 | 8 | 0 | 0.0 | 0.0 | 0.00 | 1.22 | 1.12 | 84 | 1016.1 |
| 20260507024549 | 8 | 0 | 0.0 | 0.0 | 0.00 | 1.22 | 1.12 | 83 | 1016.0 |
| 20260507024036 | 8 | 0 | 0.0 | 0.0 | 0.00 | 1.22 | 1.12 | 83 | 1016.0 |
| 20260507023538 | 9 | 0 | 0.0 | 0.0 | 0.00 | 1.22 | 1.12 | 83 | 1016.0 |
| 20260507023044 | 9 | 0 | 0.0 | 0.0 | 0.00 | 1.22 | 1.12 | 82 | 1016.0 |
| 20260507022535 | 9 | 0 | 0.0 | 0.0 | 0.00 | 1.22 | 1.12 | 82 | 1015.9 |
| 20260507022036 | 9 | 0 | 0.0 | 0.0 | 0.00 | 1.22 | 1.12 | 82 | 1015.9 |
| 20260507021549 | 9 | 0 | 0.0 | 0.0 | 0.00 | 1.22 | 1.12 | 81 | 1015.9 |
| 20260507021035 | 9 | 0 | 0.0 | 0.0 | 0.00 | 1.22 | 1.12 | 81 | 1015.9 |
| 20260507020538 | 10 | 0 | 0.0 | 0.0 | 0.00 | 1.22 | 1.12 | 80 | 1015.8 |
| 20260507020106 | 10 | 0 | 0.0 | 0.0 | 0.00 | 1.22 | 1.12 | 80 | 1015.7 |
| 20260507015536 | 10 | 0 | 0.0 | 0.0 | 0.00 | 1.37 | 1.12 | 80 | 1015.7 |
| 20260507015036 | 10 | 0 | 0.0 | 0.0 | 0.00 | 1.37 | 1.12 | 79 | 1015.6 |
| 20260507014606 | 10 | 0 | 0.0 | 0.0 | 0.00 | 1.37 | 1.12 | 79 | 1015.7 |
| 20260507014036 | 10 | 0 | 0.0 | 0.0 | 0.00 | 1.37 | 1.12 | 79 | 1015.7 |
| 20260507013535 | 10 | 0 | 0.0 | 0.0 | 0.00 | 1.37 | 1.12 | 78 | 1015.5 |
| 20260507013048 | 11 | 0 | 0.0 | 0.0 | 0.00 | 1.37 | 1.12 | 78 | 1015.5 |
| 20260507012539 | 11 | 0 | 0.0 | 0.0 | 0.00 | 1.37 | 1.12 | 78 | 1015.4 |
| 20260507012035 | 11 | 0 | 0.0 | 0.0 | 0.00 | 1.37 | 1.12 | 77 | 1015.4 |
| 20260507011555 | 11 | 0 | 0.0 | 0.0 | 0.00 | 1.37 | 1.12 | 76 | 1015.3 |
| 20260507011038 | 11 | 0 | 0.0 | 0.0 | 0.00 | 1.37 | 1.12 | 76 | 1015.3 |
| 20260507010539 | 11 | 0 | 0.0 | 0.0 | 0.00 | 1.37 | 1.12 | 75 | 1015.1 |
| 20260507010046 | 12 | 0 | 0.0 | 0.0 | 0.00 | 1.37 | 1.12 | 75 | 1015.1 |
| 20260507005536 | 12 | 0 | 0.0 | 0.0 | 0.00 | 1.63 | 1.12 | 74 | 1015.3 |
| 20260507005036 | 12 | 0 | 0.0 | 0.0 | 0.00 | 1.63 | 1.12 | 73 | 1015.3 |
| 20260507004549 | 12 | 0 | 0.0 | 0.0 | 0.00 | 1.63 | 1.12 | 73 | 1015.2 |
| 20260507004037 | 12 | 0 | 0.0 | 0.0 | 0.00 | 1.63 | 1.12 | 73 | 1015.1 |
| 20260507003535 | 12 | 0 | 0.0 | 0.0 | 0.00 | 1.63 | 1.12 | 72 | 1015.2 |
| 20260507003047 | 12 | 0 | 0.0 | 0.0 | 0.00 | 1.63 | 1.12 | 71 | 1015.2 |
| 20260507002535 | 12 | 0 | 0.0 | 1.6 | 0.00 | 1.63 | 1.12 | 70 | 1015.1 |
| 20260507002037 | 13 | 0 | 0.0 | 1.6 | 0.00 | 1.63 | 1.12 | 69 | 1015.1 |
| 20260507001558 | 13 | 0 | 0.0 | 1.6 | 0.00 | 1.63 | 1.12 | 69 | 1015.0 |
| 20260507001038 | 13 | 0 | 0.0 | 3.2 | 0.00 | 1.63 | 1.12 | 68 | 1015.0 |
| 20260507000538 | 13 | 0 | 0.0 | 3.2 | 0.00 | 1.63 | 1.12 | 66 | 1015.0 |
| 20260507000057 | 13 | 0 | 0.0 | 1.6 | 0.00 | 1.63 | 1.12 | 66 | 1014.9 |
| 20260506235539 | 13 | 0 | 0.0 | 1.6 | 0.00 | 1.70 | 1.12 | 65 | 1014.8 |
| 20260506235037 | 14 | 0 | 0.0 | 4.8 | 0.00 | 1.70 | 1.12 | 62 | 1014.9 |
| 20260506234601 | 14 | 0 | 0.0 | 4.8 | 0.00 | 1.70 | 1.12 | 62 | 1014.7 |
| 20260506234035 | 14 | 0 | 0.0 | 3.2 | 0.00 | 1.70 | 1.12 | 62 | 1014.6 |
| 20260506233536 | 15 | 284 | 0.0 | 3.2 | 0.00 | 1.70 | 1.12 | 60 | 1014.6 |
| 20260506233052 | 15 | 289 | 0.0 | 6.4 | 0.00 | 1.70 | 1.12 | 61 | 1014.7 |
| 20260506232542 | 15 | 51 | 0.0 | 6.4 | 0.00 | 1.70 | 1.12 | 59 | 1014.7 |
| 20260506232035 | 16 | 0 | 0.0 | 3.2 | 0.00 | 1.70 | 1.12 | 60 | 1014.7 |
| 20260506231543 | 16 | 0 | 0.0 | 4.8 | 0.00 | 1.70 | 1.12 | 60 | 1014.7 |
| 20260506231037 | 16 | 0 | 0.0 | 6.4 | 0.00 | 1.70 | 1.12 | 59 | 1014.4 |
| 20260506230537 | 16 | 295 | 0.0 | 8.0 | 0.00 | 1.70 | 1.12 | 61 | 1014.2 |
| 20260506230100 | 15 | 287 | 1.6 | 8.0 | 0.00 | 1.70 | 1.12 | 60 | 1014.1 |
| 20260506225536 | 16 | 265 | 0.0 | 3.2 | 0.00 | 1.73 | 1.12 | 61 | 1014.3 |
| 20260506225036 | 15 | 0 | 0.0 | 3.2 | 0.00 | 1.73 | 1.12 | 63 | 1014.4 |
| 20260506224550 | 15 | 212 | 0.0 | 4.8 | 0.00 | 1.73 | 1.12 | 63 | 1014.4 |
| 20260506224035 | 14 | 288 | 0.0 | 4.8 | 0.00 | 1.73 | 1.12 | 66 | 1014.5 |
| 20260506223535 | 14 | 0 | 0.0 | 3.2 | 0.00 | 1.73 | 1.12 | 66 | 1014.4 |
| 20260506223044 | 14 | 272 | 0.0 | 3.2 | 0.00 | 1.73 | 1.12 | 63 | 1014.5 |
| 20260506222537 | 15 | 0 | 0.0 | 3.2 | 0.00 | 1.73 | 1.12 | 62 | 1014.6 |
| 20260506222036 | 15 | 0 | 0.0 | 3.2 | 0.00 | 1.73 | 1.12 | 65 | 1014.7 |
| 20260506221601 | 15 | 0 | 0.0 | 4.8 | 0.00 | 1.73 | 1.12 | 65 | 1014.7 |
| 20260506221036 | 14 | 0 | 0.0 | 4.8 | 0.00 | 1.73 | 1.12 | 63 | 1014.7 |
| 20260506220535 | 15 | 281 | 0.0 | 3.2 | 0.00 | 1.73 | 1.12 | 60 | 1014.7 |
| 20260506220047 | 14 | 284 | 0.0 | 6.4 | 0.00 | 1.73 | 1.12 | 61 | 1014.9 |
| 20260506215537 | 15 | 270 | 0.0 | 6.4 | 0.00 | 1.78 | 1.12 | 64 | 1014.8 |
| 20260506215036 | 15 | 260 | 0.0 | 1.6 | 0.00 | 1.78 | 1.12 | 65 | 1014.8 |
| 20260506214549 | 15 | 270 | 0.0 | 3.2 | 0.00 | 1.78 | 1.12 | 64 | 1014.9 |
| 20260506214036 | 15 | 0 | 0.0 | 3.2 | 0.00 | 1.78 | 1.12 | 63 | 1014.9 |
| 20260506213539 | 15 | 268 | 0.0 | 3.2 | 0.00 | 1.78 | 1.12 | 64 | 1014.8 |
| 20260506213054 | 15 | 0 | 0.0 | 3.2 | 0.00 | 1.78 | 1.12 | 64 | 1014.7 |
| 20260506212536 | 15 | 0 | 0.0 | 3.2 | 0.00 | 1.78 | 1.12 | 64 | 1014.7 |
| 20260506212039 | 15 | 289 | 0.0 | 6.4 | 0.00 | 1.78 | 1.12 | 63 | 1014.5 |
| 20260506211553 | 15 | 0 | 0.0 | 6.4 | 0.00 | 1.78 | 1.12 | 64 | 1014.6 |
| 20260506211036 | 15 | 309 | 0.0 | 6.4 | 0.00 | 1.78 | 1.12 | 62 | 1014.6 |
| 20260506210536 | 15 | 0 | 0.0 | 3.2 | 0.00 | 1.78 | 1.12 | 62 | 1014.5 |
| 20260506210047 | 15 | 0 | 0.0 | 3.2 | 0.00 | 1.78 | 1.12 | 61 | 1014.4 |
| 20260506205536 | 15 | 0 | 0.0 | 3.2 | 0.00 | 1.98 | 1.12 | 62 | 1014.4 |
| 20260506205035 | 15 | 0 | 0.0 | 4.8 | 0.00 | 1.98 | 1.12 | 60 | 1014.4 |
| 20260506204551 | 15 | 280 | 0.0 | 4.8 | 0.00 | 1.98 | 1.12 | 62 | 1014.4 |
| 20260506204036 | 15 | 283 | 0.0 | 3.2 | 0.00 | 1.98 | 1.12 | 63 | 1014.4 |
| 20260506203536 | 15 | 283 | 0.0 | 3.2 | 0.00 | 1.98 | 1.12 | 59 | 1014.4 |
| 20260506203044 | 15 | 285 | 1.6 | 4.8 | 0.00 | 1.98 | 1.12 | 61 | 1014.4 |
| 20260506202535 | 15 | 283 | 0.0 | 4.8 | 0.00 | 1.98 | 1.12 | 64 | 1014.4 |
| 20260506202037 | 15 | 306 | 0.0 | 3.2 | 0.00 | 1.98 | 1.12 | 66 | 1014.6 |
| 20260506201550 | 15 | 0 | 0.0 | 6.4 | 0.00 | 1.98 | 1.12 | 65 | 1014.6 |
| 20260506201035 | 15 | 307 | 1.6 | 6.4 | 0.00 | 1.98 | 1.12 | 59 | 1014.6 |
| 20260506200535 | 15 | 272 | 0.0 | 4.8 | 0.00 | 1.98 | 1.12 | 63 | 1014.6 |
| 20260506200047 | 15 | 0 | 0.0 | 4.8 | 0.00 | 1.98 | 1.12 | 64 | 1014.6 |
| 20260506195537 | 15 | 301 | 0.0 | 4.8 | 0.00 | 2.21 | 1.12 | 64 | 1014.6 |
| 20260506195039 | 15 | 0 | 0.0 | 4.8 | 0.00 | 2.21 | 1.12 | 64 | 1014.8 |
| 20260506194546 | 15 | 0 | 0.0 | 4.8 | 0.00 | 2.21 | 1.12 | 65 | 1014.6 |
| 20260506194038 | 15 | 296 | 1.6 | 4.8 | 0.00 | 2.21 | 1.12 | 62 | 1014.4 |